Volver al catálogo

COSMOS 374 DEB

ActivoLEO
NORAD 4711·DEBRIS·🇷🇺 Russia

Lanzado Oct 23, 1970 desde Baikonur Cosmodrome

Loading…

Próximos Pases (próximas 24 horas)

TLE

ActualizadoSource: Space-Track

Época: Sep 14, 2026, 05:11 UTC

1 04711U 70089S   26257.21610135  .00000805  00000-0  22770-3 0  9992
2 04711  63.1161 337.6039 0815295  83.6788 285.6356 13.38856268666692

Sigue COSMOS 374 DEB en tiempo real con AllMySat

Download on the App Store